Simultaneous Nadir Overpasses (SNOs) Predictions

Prediction of SNOs between AURA and NPP Satellite Orbit:

Table of predicted SNOs for the next 14.0 days since TLE Epoch: 5/21/2021
Index Date (AURA) Time (AURA) Lat,Lon (AURA) SZA (AURA ) Date (NPP) Time (NPP) Lat,Lon (NPP) SZA (NPP ) Distance(km) Time Diff (sec)
1 05/22/2021 11:24:56 -79.40, 84.81 107.73 05/22/2021 11:24:11 -79.40, 84.91 107.71 2.15 45
2 05/22/2021 12:14:17 79.58,-106.27 72.00 05/22/2021 12:14:50 79.58,-106.34 71.99 1.43 33
3 05/25/2021 03:41:24 -79.41,-159.20 108.23 05/25/2021 03:41:08 -79.41,-159.26 108.21 1.27 16
4 05/25/2021 04:30:42 79.71, 10.52 71.33 05/25/2021 04:31:43 79.71, 10.59 71.27 1.63 61
5 05/27/2021 19:08:29 79.26, 148.02 71.57 05/27/2021 19:07:24 79.25, 147.98 71.63 0.86 65
6 05/27/2021 19:57:48 -79.57, -42.20 108.90 05/27/2021 19:58:00 -79.58, -42.10 108.93 2.26 12
7 05/30/2021 11:24:53 79.41, -95.05 70.95 05/30/2021 11:24:16 79.43, -94.91 70.95 3.16 37
8 05/30/2021 12:14:15 -79.62, 73.98 109.35 05/30/2021 12:14:56 -79.62, 73.98 109.38 0.07 41
9 06/02/2021 03:41:18 79.49, 21.34 70.50 06/02/2021 03:41:10 79.49, 21.40 70.50 1.32 8
10 06/02/2021 04:30:41 -79.65,-169.87 109.75 06/02/2021 04:31:51 -79.65,-169.96 109.79 1.89 70
11 06/04/2021 19:08:27 -79.23, -32.16 109.41 06/04/2021 19:07:31 -79.22, -32.29 109.34 2.78 56



Historial Predications of SNOs between AURA and NPP
